Regional Weather Roundup
Issued by NWS

Home | Current Version | Previous Version | Text Only | Print | Product List | Glossary On
Versions: 1 2 3 4 5 6 7 8 9 10 11 12 13 14 15 16 17 18 19 20 21 22 23 24 25 26 27 28 29 30 31 32 33 34 35 36 37 38 39 40 41 42 43 44 45 46 47 48 49 50
000
ASMX46 KSGX 011510
RWRMX

MEXICAN WEATHER ROUNDUP
NATIONAL WEATHER SERVICE SAN DIEGO CA
700 AM PST SUN FEB 01 2015

BAJA CALIFORNIA

CITY           SKY/WX    TMP DP  RH WIND       PRES   REMARKS
LA PAZ         MOSUNNY   50  48  93 S5        30.00
LORETO         CLEAR     61  52  72 CALM      29.98
MEXICALI       CLEAR     52  45  76 NE7       30.07
S.J. DEL CABO  SUNNY     59  52  77 NW6       29.96R
TIJUANA        CLEAR     50  46  87 CALM      30.09S

NORTHWESTERN MEXICO

CITY           SKY/WX    TMP DP  RH WIND       PRES   REMARKS
CHIHUAHUA      PTSUNNY   45  34  65 SW5       30.09
CULIACAN       PTSUNNY   64  63  94 CALM      29.96
GUAYMAS        CLEAR     61  57  88 CALM      29.95
HERMOSILLO     CLEAR     55  54  94 CALM      30.02
JUAREZ         MOSUNNY   46  39  76 S6        29.99
LOS MOCHIS     SUNNY     57  54  88 NE7       29.98R
OBREGON        MOSUNNY   57  54  88 NW2       29.95

NORTHEASTERN MEXICO

CITY           SKY/WX    TMP DP  RH WIND       PRES   REMARKS
MATAMOROS      PTSUNNY   66  66 100 S14       29.95
MONCLOVA         N/A    N/A N/A N/A MISG        N/A
MONTERREY      PTSUNNY   59  57  94 CALM      29.93R
NUEVO LAREDO   FOG       57  55  94 NW6       29.95  VSB 0
PIEDRAS NEGRAS FOG       54  48  82 CALM      29.95R VSB 0
REYNOSA        PTSUNNY   64  55  72 S9        29.93
SALTILLO       CLOUDY    57  45  62 CALM      30.10R
TORREON        PTSUNNY   54  50  87 CALM      30.06R
VICTORIA       PTSUNNY   64  59  82 S7        29.94

WESTERN MEXICO

CITY           SKY/WX    TMP DP  RH WIND       PRES   REMARKS
AGUASCALIENTES CLOUDY    50  41  71 CALM      30.21
COLIMA         CLOUDY    66  57  72 CALM      30.07R
DURANGO        CLOUDY    46  45  93 CALM      30.11R
GUADALAJARA    LGT RAIN  54  50  87 NW5       30.19
MANZANILLO     LGT RAIN  72  68  88 N6        29.96R
MAZATLAN       LGT RAIN  64  59  82 NW9       29.91S
PTO. VALLARTA  PTSUNNY   70  66  88 CALM      29.89R
TEPIC            N/A    N/A N/A N/A MISG        N/A
URUAPAN        PTSUNNY   59  54  82 CALM      30.18R
ZACATECAS      CLOUDY    46  39  76 S12       30.18

CENTRAL MEXICO

CITY           SKY/WX    TMP DP  RH WIND       PRES   REMARKS
CUERNAVACA     SUNNY     68  43  40 CALM      30.17R
LEON           CLOUDY    54  46  76 S2        30.27R
MEXICO CITY    SUNNY     55  37  50 CALM      30.29R
MORELIA        PTSUNNY   59  43  55 S3        30.22
POZA RICA      PTSUNNY   64  63  94 CALM      29.99R FOG
PUEBLA         MOSUNNY   46  34  61 NW7       30.30R
QUERETARO      PTSUNNY   57  45  62 NW6       30.27R
S. LUIS POTOSI PTSUNNY   55  37  50 W5        30.16R
TAMPICO        PTSUNNY   66  64  94 S5        29.98S
TOLUCA         MOSUNNY   41  36  81 CALM      30.34R
VERACRUZ       SUNNY     68  63  83 CALM      29.96R

SOUTHERN MEXICO

CITY           SKY/WX    TMP DP  RH WIND       PRES   REMARKS
ACAPULCO       SUNNY     75  61  60 N7        29.95R
B. DE HUATULCO SUNNY     73  66  78 CALM      29.97
MINATITLAN     SUNNY     68  64  88 N9        29.92
OAXACA         SUNNY     57  46  67 CALM      30.24R
PTO. ESCONDIDO SUNNY     75  64  69 E3        30.04R
TAPACHULA      SUNNY     79  73  83 CALM      29.97R
TUX. GUTIERREZ SUNNY     64  57  77 CALM      30.06R
VILLAHERMOSA   FOG       68  66  94 W5        29.99R VSB 1
ZIHUATANEJO    MOSUNNY   72  64  78 CALM      29.95R

YUCATAN PENINSULA

CITY           SKY/WX    TMP DP  RH WIND       PRES   REMARKS
CAMPECHE       SUNNY     73  68  83 SE12G23   29.98S
CANCUN         MOSUNNY   81  64  57 SE17      30.08R
CHETUMAL       MOSUNNY   73  64  73 CALM      30.04R
C. DEL CARMEN  SUNNY     73  66  78 SE14      29.98
COZUMEL        SUNNY     73  64  73 SE10      30.07R
MERIDA         SUNNY     73  63  68 E15       30.04R

$$



USA.gov is the U.S. government's official web portal to all federal, state and local government web resources and services.